Notices

What's New in latest Release from April 7th, 2021:

- Updated Glossary, including Speed of Maximum Gust, and Total Hourly Precipitation

- Updated national and regional climate services offices contacts and prices information

- Addition of station inventory lists for 1981-2010, 1971-2000, and 1961-1990 Normals.

If you haven't already, please take our survey and provide feedback about our website: https://eccc.sondage-survey.ca/f/LanguageSelection.aspx?s=442ca660-fcf1-47c0-95a9-59707d6fd709

Hourly Data Report for September 16, 2003

TORONTO CITY
ONTARIO

43°40'00.000" N
79°24'00.000" W
112.50 m
6158355
71508
XTO

Download Data

Hourly Data (September 2003)
Hourly Data Report for September 16, 2003
TIME
LST
Temp Definition
°C
Dew Point Definition
°C
Rel Hum Definition
%
Precip. Amount Definition
mm

Wind Dir Definition
10's deg

Wind Spd Definition
km/h
Visibility Definition
km
Stn Press Definition
kPa
Hmdx Definition


Wind Chill Definition


Weather Definition


00:00 13.9 12.6 92   LegendMM LegendMM LegendMM 100.21     LegendNANA
01:00 14.2 12.6 90   LegendMM LegendMM LegendMM 100.28     LegendNANA
02:00 13.3 11.8 91   LegendMM LegendMM LegendMM 100.29     LegendNANA
03:00 13.2 11.8 91   LegendMM LegendMM LegendMM 100.30     LegendNANA
04:00
05:00 12.5 10.9 90   LegendMM LegendMM LegendMM 100.37     LegendNANA
06:00 12.1 10.9 92   LegendMM LegendMM LegendMM 100.42     LegendNANA
07:00 13.4 11.9 91   LegendMM LegendMM LegendMM 100.43     LegendNANA
08:00 15.7 11.8 78   LegendMM LegendMM LegendMM 100.45     LegendNANA
09:00 18.3 11.8 66   LegendMM LegendMM LegendMM 100.47     LegendNANA
10:00 21.0 12.4 58   LegendMM LegendMM LegendMM 100.46     LegendNANA
11:00
12:00 21.8 10.0 47   LegendMM LegendMM LegendMM 100.45     LegendNANA
13:00 24.3 9.9 40   LegendMM LegendMM LegendMM 100.42 26   LegendNANA
14:00 23.6 8.4 38   LegendMM LegendMM LegendMM 100.39     LegendNANA
15:00 23.9 9.0 39   LegendMM LegendMM LegendMM 100.39 25   LegendNANA
16:00 23.6 8.7 39   LegendMM LegendMM LegendMM 100.41     LegendNANA
17:00 22.7 9.4 43   LegendMM LegendMM LegendMM 100.45     LegendNANA
18:00 21.8 8.1 41   LegendMM LegendMM LegendMM 100.51     LegendNANA
19:00 19.8 8.9 49   LegendMM LegendMM LegendMM 100.58     LegendNANA
20:00 18.0 9.4 57   LegendMM LegendMM LegendMM 100.65     LegendNANA
21:00 16.4 9.7 65   LegendMM LegendMM LegendMM 100.69     LegendNANA
22:00 16.1 10.1 68   LegendMM LegendMM LegendMM 100.75     LegendNANA
23:00 15.4 10.6 73   LegendMM LegendMM LegendMM 100.81     LegendNANA

Notes on Data Quality.

Legend

  • E = Estimated
  • M = Missing
  • NA = Not Available*
  • [empty] = Indicates an unobserved value
Date modified: